Year,Month,Day,Hour,Minute,Value (Times are PST for temperature in C)
2016,06,04,00,00,17.70
2016,06,04,00,01,17.70
2016,06,04,00,02,17.60
2016,06,04,00,03,17.60
2016,06,04,00,04,17.60
2016,06,04,00,05,17.50
2016,06,04,00,06,17.50
2016,06,04,00,07,17.40
2016,06,04,00,08,17.40
2016,06,04,00,09,17.30
2016,06,04,00,10,17.30
2016,06,04,00,11,17.30
2016,06,04,00,12,17.30
2016,06,04,00,13,17.30
2016,06,04,00,14,17.20
2016,06,04,00,15,17.20
2016,06,04,00,16,17.10
2016,06,04,00,17,17.10
2016,06,04,00,18,17.10
2016,06,04,00,19,17.10
2016,06,04,00,20,17.00
2016,06,04,00,21,17.00
2016,06,04,00,22,16.90
2016,06,04,00,23,16.90
2016,06,04,00,24,16.90
2016,06,04,00,25,16.90
2016,06,04,00,26,16.90
2016,06,04,00,27,16.80
2016,06,04,00,28,16.80
2016,06,04,00,29,16.80
2016,06,04,00,30,16.80
2016,06,04,00,31,16.70
2016,06,04,00,32,16.70
2016,06,04,00,33,16.70
2016,06,04,00,34,16.70
2016,06,04,00,35,16.70
2016,06,04,00,36,16.60
2016,06,04,00,37,16.60
2016,06,04,00,38,16.60
2016,06,04,00,39,16.60
2016,06,04,00,40,16.50
2016,06,04,00,41,16.50
2016,06,04,00,42,16.40
2016,06,04,00,43,16.40
2016,06,04,00,44,16.40
2016,06,04,00,45,16.40
2016,06,04,00,46,16.40
2016,06,04,00,47,16.30
2016,06,04,00,48,16.30
2016,06,04,00,49,16.30
2016,06,04,00,50,16.30
2016,06,04,00,51,16.20
2016,06,04,00,52,16.20
2016,06,04,00,53,16.20
2016,06,04,00,54,16.20
2016,06,04,00,55,16.10
2016,06,04,00,56,16.10
2016,06,04,00,57,16.10
2016,06,04,00,58,16.00
2016,06,04,00,59,16.00
2016,06,04,01,00,16.00
2016,06,04,01,01,16.00
2016,06,04,01,02,15.90
2016,06,04,01,03,15.90
2016,06,04,01,04,15.90
2016,06,04,01,05,15.90
2016,06,04,01,06,15.90
2016,06,04,01,07,15.80
2016,06,04,01,08,15.80
2016,06,04,01,09,15.80
2016,06,04,01,10,15.80
2016,06,04,01,11,15.80
2016,06,04,01,12,15.70
2016,06,04,01,13,15.70
2016,06,04,01,14,15.70
2016,06,04,01,15,15.70
2016,06,04,01,16,15.70
2016,06,04,01,17,15.70
2016,06,04,01,18,15.70
2016,06,04,01,19,15.60
2016,06,04,01,20,15.60
2016,06,04,01,21,15.60
2016,06,04,01,22,15.60
2016,06,04,01,23,15.60
2016,06,04,01,24,15.60
2016,06,04,01,25,15.70
2016,06,04,01,26,15.70
2016,06,04,01,27,15.70
2016,06,04,01,28,15.70
2016,06,04,01,29,15.70
2016,06,04,01,30,15.70
2016,06,04,01,31,15.70
2016,06,04,01,32,15.70
2016,06,04,01,33,15.70
2016,06,04,01,34,15.70
2016,06,04,01,35,15.70
2016,06,04,01,36,15.70
2016,06,04,01,37,15.70
2016,06,04,01,38,15.70
2016,06,04,01,39,15.80
2016,06,04,01,40,15.80
2016,06,04,01,41,15.80
2016,06,04,01,42,15.80
2016,06,04,01,43,15.80
2016,06,04,01,44,15.90
2016,06,04,01,45,15.90
2016,06,04,01,46,15.90
2016,06,04,01,47,16.00
2016,06,04,01,48,16.00
2016,06,04,01,49,16.00
2016,06,04,01,50,16.00
2016,06,04,01,51,16.10
2016,06,04,01,52,16.10
2016,06,04,01,53,16.10
2016,06,04,01,54,16.10
2016,06,04,01,55,16.10
2016,06,04,01,56,16.10
2016,06,04,01,57,16.10
2016,06,04,01,58,16.10
2016,06,04,01,59,16.10
2016,06,04,02,00,16.10
2016,06,04,02,01,16.10
2016,06,04,02,02,16.10
2016,06,04,02,03,16.10
2016,06,04,02,04,16.10
2016,06,04,02,05,16.10
2016,06,04,02,06,16.10
2016,06,04,02,07,16.10
2016,06,04,02,08,16.10
2016,06,04,02,09,16.10
2016,06,04,02,10,16.10
2016,06,04,02,11,16.10
2016,06,04,02,12,16.10
2016,06,04,02,13,16.10
2016,06,04,02,14,16.10
2016,06,04,02,15,16.10
2016,06,04,02,16,16.10
2016,06,04,02,17,16.10
2016,06,04,02,18,16.10
2016,06,04,02,19,16.10
2016,06,04,02,20,16.10
2016,06,04,02,21,16.00
2016,06,04,02,22,16.00
2016,06,04,02,23,16.00
2016,06,04,02,24,16.00
2016,06,04,02,25,16.00
2016,06,04,02,26,15.90
2016,06,04,02,27,15.90
2016,06,04,02,28,15.90
2016,06,04,02,29,15.90
2016,06,04,02,30,15.90
2016,06,04,02,31,15.90
2016,06,04,02,32,15.80
2016,06,04,02,33,15.80
2016,06,04,02,34,15.80
2016,06,04,02,35,15.80
2016,06,04,02,36,15.80
2016,06,04,02,37,15.80
2016,06,04,02,38,15.80
2016,06,04,02,39,15.80
2016,06,04,02,40,15.80
2016,06,04,02,41,15.70
2016,06,04,02,42,15.70
2016,06,04,02,43,15.70
2016,06,04,02,44,15.70
2016,06,04,02,45,15.70
2016,06,04,02,46,15.70
2016,06,04,02,47,15.70
2016,06,04,02,48,15.70
2016,06,04,02,49,15.60
2016,06,04,02,50,15.60
2016,06,04,02,51,15.60
2016,06,04,02,52,15.60
2016,06,04,02,53,15.50
2016,06,04,02,54,15.50
2016,06,04,02,55,15.50
2016,06,04,02,56,15.50
2016,06,04,02,57,15.40
2016,06,04,02,58,15.40
2016,06,04,02,59,15.40
2016,06,04,03,00,15.40
2016,06,04,03,01,15.40
2016,06,04,03,02,15.40
2016,06,04,03,03,15.40
2016,06,04,03,04,15.30
2016,06,04,03,05,15.30
2016,06,04,03,06,15.30
2016,06,04,03,07,15.30
2016,06,04,03,08,15.30
2016,06,04,03,09,15.30
2016,06,04,03,10,15.30
2016,06,04,03,11,15.20
2016,06,04,03,12,15.20
2016,06,04,03,13,15.20
2016,06,04,03,14,15.20
2016,06,04,03,15,15.20
2016,06,04,03,16,15.20
2016,06,04,03,17,15.10
2016,06,04,03,18,15.10
2016,06,04,03,19,15.10
2016,06,04,03,20,15.10
2016,06,04,03,21,15.10
2016,06,04,03,22,15.00
2016,06,04,03,23,15.00
2016,06,04,03,24,15.00
2016,06,04,03,25,15.00
2016,06,04,03,26,14.90
2016,06,04,03,27,14.90
2016,06,04,03,28,14.90
2016,06,04,03,29,14.90
2016,06,04,03,30,14.80
2016,06,04,03,31,14.80
2016,06,04,03,32,14.80
2016,06,04,03,33,14.80
2016,06,04,03,34,14.80
2016,06,04,03,35,14.80
2016,06,04,03,36,14.70
2016,06,04,03,37,14.70
2016,06,04,03,38,14.70
2016,06,04,03,39,14.70
2016,06,04,03,40,14.70
2016,06,04,03,41,14.70
2016,06,04,03,42,14.70
2016,06,04,03,43,14.70
2016,06,04,03,44,14.60
2016,06,04,03,45,14.60
2016,06,04,03,46,14.60
2016,06,04,03,47,14.60
2016,06,04,03,48,14.60
2016,06,04,03,49,14.60
2016,06,04,03,50,14.60
2016,06,04,03,51,14.60
2016,06,04,03,52,14.60
2016,06,04,03,53,14.60
2016,06,04,03,54,14.50
2016,06,04,03,55,14.50
2016,06,04,03,56,14.50
2016,06,04,03,57,14.50
2016,06,04,03,58,14.50
2016,06,04,03,59,14.50
2016,06,04,04,00,14.50
2016,06,04,04,01,14.50
2016,06,04,04,02,14.50
2016,06,04,04,03,14.40
2016,06,04,04,04,14.40
2016,06,04,04,05,14.40
2016,06,04,04,06,14.40
2016,06,04,04,07,14.40
2016,06,04,04,08,14.40
2016,06,04,04,09,14.40
2016,06,04,04,10,14.40
2016,06,04,04,11,14.40
2016,06,04,04,12,14.40
2016,06,04,04,13,14.40
2016,06,04,04,14,14.40
2016,06,04,04,15,14.40
2016,06,04,04,16,14.30
2016,06,04,04,17,14.30
2016,06,04,04,18,14.30
2016,06,04,04,19,14.30
2016,06,04,04,20,14.30
2016,06,04,04,21,14.30
2016,06,04,04,22,14.30
2016,06,04,04,23,14.30
2016,06,04,04,24,14.20
2016,06,04,04,25,14.20
2016,06,04,04,26,14.20
2016,06,04,04,27,14.20
2016,06,04,04,28,14.20
2016,06,04,04,29,14.20
2016,06,04,04,30,14.20
2016,06,04,04,31,14.20
2016,06,04,04,32,14.20
2016,06,04,04,33,14.10
2016,06,04,04,34,14.10
2016,06,04,04,35,14.10
2016,06,04,04,36,14.10
2016,06,04,04,37,14.10
2016,06,04,04,38,14.10
2016,06,04,04,39,14.10
2016,06,04,04,40,14.10
2016,06,04,04,41,14.10
2016,06,04,04,42,14.00
2016,06,04,04,43,14.00
2016,06,04,04,44,14.00
2016,06,04,04,45,14.00
2016,06,04,04,46,14.00
2016,06,04,04,47,14.00
2016,06,04,04,48,13.90
2016,06,04,04,49,13.90
2016,06,04,04,50,13.90
2016,06,04,04,51,13.90
2016,06,04,04,52,13.90
2016,06,04,04,53,13.90
2016,06,04,04,54,13.80
2016,06,04,04,55,13.80
2016,06,04,04,56,13.80
2016,06,04,04,57,13.80
2016,06,04,04,58,13.80
2016,06,04,04,59,13.80
2016,06,04,05,00,13.70
2016,06,04,05,01,13.70
2016,06,04,05,02,13.70
2016,06,04,05,03,13.70
2016,06,04,05,04,13.70
2016,06,04,05,05,13.70
2016,06,04,05,06,13.70
2016,06,04,05,07,13.60
2016,06,04,05,08,13.60
2016,06,04,05,09,13.60
2016,06,04,05,10,13.60
2016,06,04,05,11,13.60
2016,06,04,05,12,13.50
2016,06,04,05,13,13.50
2016,06,04,05,14,13.50
2016,06,04,05,15,13.50
2016,06,04,05,16,13.50
2016,06,04,05,17,13.40
2016,06,04,05,18,13.40
2016,06,04,05,19,13.40
2016,06,04,05,20,13.40
2016,06,04,05,21,13.40
2016,06,04,05,22,13.40
2016,06,04,05,23,13.40
2016,06,04,05,24,13.30
2016,06,04,05,25,13.30
2016,06,04,05,26,13.30
2016,06,04,05,27,13.30
2016,06,04,05,28,13.30
2016,06,04,05,29,13.30
2016,06,04,05,30,13.30
2016,06,04,05,31,13.30
2016,06,04,05,32,13.30
2016,06,04,05,33,13.30
2016,06,04,05,34,13.30
2016,06,04,05,35,13.30
2016,06,04,05,36,13.30
2016,06,04,05,37,13.30
2016,06,04,05,38,13.30
2016,06,04,05,39,13.30
2016,06,04,05,40,13.30
2016,06,04,05,41,13.30
2016,06,04,05,42,13.30
2016,06,04,05,43,13.30
2016,06,04,05,44,13.30
2016,06,04,05,45,13.30
2016,06,04,05,46,13.30
2016,06,04,05,47,13.30
2016,06,04,05,48,13.30
2016,06,04,05,49,13.30
2016,06,04,05,50,13.20
2016,06,04,05,51,13.20
2016,06,04,05,52,13.20
2016,06,04,05,53,13.20
2016,06,04,05,54,13.20
2016,06,04,05,55,13.20
2016,06,04,05,56,13.20
2016,06,04,05,57,13.20
2016,06,04,05,58,13.20
2016,06,04,05,59,13.20
2016,06,04,06,00,13.20
2016,06,04,06,01,13.20
2016,06,04,06,02,13.20
2016,06,04,06,03,13.20
2016,06,04,06,04,13.20
2016,06,04,06,05,13.20
2016,06,04,06,06,13.20
2016,06,04,06,07,13.20
2016,06,04,06,08,13.20
2016,06,04,06,09,13.30
2016,06,04,06,10,13.30
2016,06,04,06,11,13.30
2016,06,04,06,12,13.30
2016,06,04,06,13,13.40
2016,06,04,06,14,13.40
2016,06,04,06,15,13.40
2016,06,04,06,16,13.50
2016,06,04,06,17,13.50
2016,06,04,06,18,13.60
2016,06,04,06,19,13.70
2016,06,04,06,20,13.70
2016,06,04,06,21,13.80
2016,06,04,06,22,13.80
2016,06,04,06,23,13.90
2016,06,04,06,24,13.90
2016,06,04,06,25,14.00
2016,06,04,06,26,14.00
2016,06,04,06,27,14.10
2016,06,04,06,28,14.10
2016,06,04,06,29,14.20
2016,06,04,06,30,14.20
2016,06,04,06,31,14.30
2016,06,04,06,32,14.40
2016,06,04,06,33,14.40
2016,06,04,06,34,14.50
2016,06,04,06,35,14.60
2016,06,04,06,36,14.70
2016,06,04,06,37,14.80
2016,06,04,06,38,14.80
2016,06,04,06,39,14.90
2016,06,04,06,40,14.90
2016,06,04,06,41,15.00
2016,06,04,06,42,15.00
2016,06,04,06,43,15.10
2016,06,04,06,44,15.10
2016,06,04,06,45,15.20
2016,06,04,06,46,15.20
2016,06,04,06,47,15.30
2016,06,04,06,48,15.40
2016,06,04,06,49,15.50
2016,06,04,06,50,15.50
2016,06,04,06,51,15.60
2016,06,04,06,52,15.70
2016,06,04,06,53,15.80
2016,06,04,06,54,15.80
2016,06,04,06,55,15.90
2016,06,04,06,56,16.00
2016,06,04,06,57,16.10
2016,06,04,06,58,16.20
2016,06,04,06,59,16.30
2016,06,04,07,00,16.40
2016,06,04,07,01,16.50
2016,06,04,07,02,16.60
2016,06,04,07,03,16.70
2016,06,04,07,04,16.80
2016,06,04,07,05,17.00
2016,06,04,07,06,17.00
2016,06,04,07,07,17.10
2016,06,04,07,08,17.20
2016,06,04,07,09,17.30
2016,06,04,07,10,17.40
2016,06,04,07,11,17.40
2016,06,04,07,12,17.50
2016,06,04,07,13,17.60
2016,06,04,07,14,17.70
2016,06,04,07,15,17.70
2016,06,04,07,16,17.80
2016,06,04,07,17,17.90
2016,06,04,07,18,17.90
2016,06,04,07,19,18.00
2016,06,04,07,20,18.00
2016,06,04,07,21,18.10
2016,06,04,07,22,18.20
2016,06,04,07,23,18.30
2016,06,04,07,24,18.30
2016,06,04,07,25,18.30
2016,06,04,07,26,18.40
2016,06,04,07,27,18.40
2016,06,04,07,28,18.40
2016,06,04,07,29,18.50
2016,06,04,07,30,18.50
2016,06,04,07,31,18.60
2016,06,04,07,32,18.60
2016,06,04,07,33,18.60
2016,06,04,07,34,18.60
2016,06,04,07,35,18.60
2016,06,04,07,36,18.60
2016,06,04,07,37,18.70
2016,06,04,07,38,18.70
2016,06,04,07,39,18.70
2016,06,04,07,40,18.70
2016,06,04,07,41,18.80
2016,06,04,07,42,18.80
2016,06,04,07,43,18.80
2016,06,04,07,44,18.80
2016,06,04,07,45,18.90
2016,06,04,07,46,18.90
2016,06,04,07,47,19.00
2016,06,04,07,48,19.00
2016,06,04,07,49,19.10
2016,06,04,07,50,19.10
2016,06,04,07,51,19.10
2016,06,04,07,52,19.20
2016,06,04,07,53,19.20
2016,06,04,07,54,19.20
2016,06,04,07,55,19.30
2016,06,04,07,56,19.30
2016,06,04,07,57,19.40
2016,06,04,07,58,19.40
2016,06,04,07,59,19.50
2016,06,04,08,00,19.50
2016,06,04,08,01,19.50
2016,06,04,08,02,19.50
2016,06,04,08,03,19.50
2016,06,04,08,04,19.50
2016,06,04,08,05,19.50
2016,06,04,08,06,19.60
2016,06,04,08,07,19.50
2016,06,04,08,08,19.50
2016,06,04,08,09,19.40
2016,06,04,08,10,19.40
2016,06,04,08,11,19.40
2016,06,04,08,12,19.40
2016,06,04,08,13,19.40
2016,06,04,08,14,19.40
2016,06,04,08,15,19.50
2016,06,04,08,16,19.50
2016,06,04,08,17,19.50
2016,06,04,08,18,19.60
2016,06,04,08,19,19.60
2016,06,04,08,20,19.60
2016,06,04,08,21,19.60
2016,06,04,08,22,19.60
2016,06,04,08,23,19.60
2016,06,04,08,24,19.60
2016,06,04,08,25,19.70
2016,06,04,08,26,19.70
2016,06,04,08,27,19.80
2016,06,04,08,28,19.80
2016,06,04,08,29,19.90
2016,06,04,08,30,19.90
2016,06,04,08,31,19.90
2016,06,04,08,32,19.80
2016,06,04,08,33,19.80
2016,06,04,08,34,19.80
2016,06,04,08,35,19.80
2016,06,04,08,36,19.80
2016,06,04,08,37,19.80
2016,06,04,08,38,19.80
2016,06,04,08,39,19.80
2016,06,04,08,40,19.80
2016,06,04,08,41,19.80
2016,06,04,08,42,19.80
2016,06,04,08,43,19.90
2016,06,04,08,44,19.90
2016,06,04,08,45,19.90
2016,06,04,08,46,19.90
2016,06,04,08,47,20.00
2016,06,04,08,48,20.00
2016,06,04,08,49,20.10
2016,06,04,08,50,20.10
2016,06,04,08,51,20.20
2016,06,04,08,52,20.30
2016,06,04,08,53,20.30
2016,06,04,08,54,20.30
2016,06,04,08,55,20.30
2016,06,04,08,56,20.30
2016,06,04,08,57,20.30
2016,06,04,08,58,20.30
2016,06,04,08,59,20.30
2016,06,04,09,00,20.30
2016,06,04,09,01,20.30
2016,06,04,09,02,20.30
2016,06,04,09,03,20.30
2016,06,04,09,04,20.30
2016,06,04,09,05,20.30
2016,06,04,09,06,20.30
2016,06,04,09,07,20.30
2016,06,04,09,08,20.30
2016,06,04,09,09,20.30
2016,06,04,09,10,20.20
2016,06,04,09,11,20.20
2016,06,04,09,12,20.20
2016,06,04,09,13,20.20
2016,06,04,09,14,20.20
2016,06,04,09,15,20.20
2016,06,04,09,16,20.20
2016,06,04,09,17,20.20
2016,06,04,09,18,20.20
2016,06,04,09,19,20.20
2016,06,04,09,20,20.20
2016,06,04,09,21,20.30
2016,06,04,09,22,20.30
2016,06,04,09,23,20.20
2016,06,04,09,24,20.20
2016,06,04,09,25,20.20
2016,06,04,09,26,20.20
2016,06,04,09,27,20.20
2016,06,04,09,28,20.20
2016,06,04,09,29,20.20
2016,06,04,09,30,20.20
2016,06,04,09,31,20.20
2016,06,04,09,32,20.20
2016,06,04,09,33,20.30
2016,06,04,09,34,20.30
2016,06,04,09,35,20.30
2016,06,04,09,36,20.30
2016,06,04,09,37,20.20
2016,06,04,09,38,20.20
2016,06,04,09,39,20.20
2016,06,04,09,40,20.10
2016,06,04,09,41,20.10
2016,06,04,09,42,20.00
2016,06,04,09,43,19.90
2016,06,04,09,44,19.90
2016,06,04,09,45,19.80
2016,06,04,09,46,19.80
2016,06,04,09,47,19.80
2016,06,04,09,48,19.80
2016,06,04,09,49,19.80
2016,06,04,09,50,19.80
2016,06,04,09,51,19.90
2016,06,04,09,52,19.90
2016,06,04,09,53,20.00
2016,06,04,09,54,20.00
2016,06,04,09,55,20.10
2016,06,04,09,56,20.10
2016,06,04,09,57,20.10
2016,06,04,09,58,20.10
2016,06,04,09,59,20.10
2016,06,04,10,00,20.10
2016,06,04,10,01,20.10
2016,06,04,10,02,20.20
2016,06,04,10,03,20.30
2016,06,04,10,04,20.30
2016,06,04,10,05,20.30
2016,06,04,10,06,20.30
2016,06,04,10,07,20.40
2016,06,04,10,08,20.40
2016,06,04,10,09,20.40
2016,06,04,10,10,20.40
2016,06,04,10,11,20.50
2016,06,04,10,12,20.50
2016,06,04,10,13,20.60
2016,06,04,10,14,20.70
2016,06,04,10,15,20.70
2016,06,04,10,16,20.70
2016,06,04,10,17,20.70
2016,06,04,10,18,20.70
2016,06,04,10,19,20.80
2016,06,04,10,20,20.80
2016,06,04,10,21,20.80
2016,06,04,10,22,20.90
2016,06,04,10,23,20.90
2016,06,04,10,24,21.00
2016,06,04,10,25,21.00
2016,06,04,10,26,21.10
2016,06,04,10,27,21.10
2016,06,04,10,28,21.20
2016,06,04,10,29,21.20
2016,06,04,10,30,21.30
2016,06,04,10,31,21.30
2016,06,04,10,32,21.20
2016,06,04,10,33,21.20
2016,06,04,10,34,21.10
2016,06,04,10,35,21.00
2016,06,04,10,36,20.90
2016,06,04,10,37,20.90
2016,06,04,10,38,20.80
2016,06,04,10,39,20.80
2016,06,04,10,40,20.70
2016,06,04,10,41,20.70
2016,06,04,10,42,20.70
2016,06,04,10,43,20.70
2016,06,04,10,44,20.80
2016,06,04,10,45,20.80
2016,06,04,10,46,20.80
2016,06,04,10,47,20.80
2016,06,04,10,48,20.80
2016,06,04,10,49,20.80
2016,06,04,10,50,20.80
2016,06,04,10,51,20.90
2016,06,04,10,52,20.90
2016,06,04,10,53,20.90
2016,06,04,10,54,21.00
2016,06,04,10,55,21.10
2016,06,04,10,56,21.10
2016,06,04,10,57,21.10
2016,06,04,10,58,21.10
2016,06,04,10,59,21.20
2016,06,04,11,00,21.30
2016,06,04,11,01,21.30
2016,06,04,11,02,21.40
2016,06,04,11,03,21.30
2016,06,04,11,04,21.30
2016,06,04,11,05,21.30
2016,06,04,11,06,21.30
2016,06,04,11,07,21.40
2016,06,04,11,08,21.40
2016,06,04,11,09,21.30
2016,06,04,11,10,21.30
2016,06,04,11,11,21.30
2016,06,04,11,12,21.30
2016,06,04,11,13,21.30
2016,06,04,11,14,21.30
2016,06,04,11,15,21.30
2016,06,04,11,16,21.30
2016,06,04,11,17,21.30
2016,06,04,11,18,21.30
2016,06,04,11,19,21.40
2016,06,04,11,20,21.40
2016,06,04,11,21,21.40
2016,06,04,11,22,21.40
2016,06,04,11,23,21.40
2016,06,04,11,24,21.40
2016,06,04,11,25,21.40
2016,06,04,11,26,21.50
2016,06,04,11,27,21.50
2016,06,04,11,28,21.50
2016,06,04,11,29,21.50
2016,06,04,11,30,21.50
2016,06,04,11,31,21.50
2016,06,04,11,32,21.50
2016,06,04,11,33,21.50
2016,06,04,11,34,21.60
2016,06,04,11,35,21.60
2016,06,04,11,36,21.60
2016,06,04,11,37,21.70
2016,06,04,11,38,21.70
2016,06,04,11,39,21.70
2016,06,04,11,40,21.70
2016,06,04,11,41,21.70
2016,06,04,11,42,21.70
2016,06,04,11,43,21.80
2016,06,04,11,44,21.80
2016,06,04,11,45,21.90
2016,06,04,11,46,21.90
2016,06,04,11,47,22.00
2016,06,04,11,48,22.10
2016,06,04,11,49,22.10
2016,06,04,11,50,22.10
2016,06,04,11,51,22.10
2016,06,04,11,52,22.10
2016,06,04,11,53,22.10
2016,06,04,11,54,22.10
2016,06,04,11,55,22.10
2016,06,04,11,56,22.10
2016,06,04,11,57,22.10
2016,06,04,11,58,22.00
2016,06,04,11,59,22.00
2016,06,04,12,00,22.00
2016,06,04,12,01,22.10
2016,06,04,12,02,22.10
2016,06,04,12,03,22.20
2016,06,04,12,04,22.20
2016,06,04,12,05,22.20
2016,06,04,12,06,22.20
2016,06,04,12,07,22.20
2016,06,04,12,08,22.30
2016,06,04,12,09,22.30
2016,06,04,12,10,22.40
2016,06,04,12,11,22.50
2016,06,04,12,12,22.60
2016,06,04,12,13,22.60
2016,06,04,12,14,22.60
2016,06,04,12,15,22.60
2016,06,04,12,16,22.60
2016,06,04,12,17,22.70
2016,06,04,12,18,22.60
2016,06,04,12,19,22.70
2016,06,04,12,20,22.60
2016,06,04,12,21,22.60
2016,06,04,12,22,22.50
2016,06,04,12,23,22.40
2016,06,04,12,24,22.30
2016,06,04,12,25,22.30
2016,06,04,12,26,22.30
2016,06,04,12,27,22.40
2016,06,04,12,28,22.40
2016,06,04,12,29,22.50
2016,06,04,12,30,22.50
2016,06,04,12,31,22.50
2016,06,04,12,32,22.50
2016,06,04,12,33,22.50
2016,06,04,12,34,22.50
2016,06,04,12,35,22.60
2016,06,04,12,36,22.60
2016,06,04,12,37,22.60
2016,06,04,12,38,22.70
2016,06,04,12,39,22.70
2016,06,04,12,40,22.60
2016,06,04,12,41,22.60
2016,06,04,12,42,22.60
2016,06,04,12,43,22.70
2016,06,04,12,44,22.70
2016,06,04,12,45,22.80
2016,06,04,12,46,22.90
2016,06,04,12,47,22.90
2016,06,04,12,48,23.00
2016,06,04,12,49,23.00
2016,06,04,12,50,23.10
2016,06,04,12,51,23.00
2016,06,04,12,52,23.00
2016,06,04,12,53,23.00
2016,06,04,12,54,23.10
2016,06,04,12,55,23.20
2016,06,04,12,56,23.20
2016,06,04,12,57,23.20
2016,06,04,12,58,23.20
2016,06,04,12,59,23.10
2016,06,04,13,00,23.10
2016,06,04,13,01,23.00
2016,06,04,13,02,23.00
2016,06,04,13,03,22.90
2016,06,04,13,04,22.90
2016,06,04,13,05,22.90
2016,06,04,13,06,22.90
2016,06,04,13,07,22.90
2016,06,04,13,08,23.00
2016,06,04,13,09,23.10
2016,06,04,13,10,23.10
2016,06,04,13,11,23.10
2016,06,04,13,12,23.20
2016,06,04,13,13,23.20
2016,06,04,13,14,23.20
2016,06,04,13,15,23.10
2016,06,04,13,16,23.10
2016,06,04,13,17,23.00
2016,06,04,13,18,22.90
2016,06,04,13,19,22.90
2016,06,04,13,20,22.90
2016,06,04,13,21,22.90
2016,06,04,13,22,22.90
2016,06,04,13,23,23.00
2016,06,04,13,24,23.00
2016,06,04,13,25,23.00
2016,06,04,13,26,23.00
2016,06,04,13,27,23.00
2016,06,04,13,28,23.00
2016,06,04,13,29,23.00
2016,06,04,13,30,23.00
2016,06,04,13,31,23.00
2016,06,04,13,32,23.00
2016,06,04,13,33,23.00
2016,06,04,13,34,23.00
2016,06,04,13,35,23.00
2016,06,04,13,36,23.00
2016,06,04,13,37,23.10
2016,06,04,13,38,23.10
2016,06,04,13,39,23.20
2016,06,04,13,40,23.20
2016,06,04,13,41,23.20
2016,06,04,13,42,23.30
2016,06,04,13,43,23.30
2016,06,04,13,44,23.40
2016,06,04,13,45,23.40
2016,06,04,13,46,23.50
2016,06,04,13,47,23.50
2016,06,04,13,48,23.60
2016,06,04,13,49,23.60
2016,06,04,13,50,23.60
2016,06,04,13,51,23.70
2016,06,04,13,52,23.70
2016,06,04,13,53,23.70
2016,06,04,13,54,23.70
2016,06,04,13,55,23.70
2016,06,04,13,56,23.70
2016,06,04,13,57,23.70
2016,06,04,13,58,23.80
2016,06,04,13,59,23.80
2016,06,04,14,00,23.70
2016,06,04,14,01,23.70
2016,06,04,14,02,23.70
2016,06,04,14,03,23.70
2016,06,04,14,04,23.80
2016,06,04,14,05,23.90
2016,06,04,14,06,23.90
2016,06,04,14,07,23.90
2016,06,04,14,08,23.90
2016,06,04,14,09,23.90
2016,06,04,14,10,23.80
2016,06,04,14,11,23.80
2016,06,04,14,12,23.80
2016,06,04,14,13,23.80
2016,06,04,14,14,23.80
2016,06,04,14,15,23.80
2016,06,04,14,16,23.80
2016,06,04,14,17,23.80
2016,06,04,14,18,23.90
2016,06,04,14,19,23.90
2016,06,04,14,20,23.90
2016,06,04,14,21,23.90
2016,06,04,14,22,24.00
2016,06,04,14,23,24.00
2016,06,04,14,24,23.90
2016,06,04,14,25,23.90
2016,06,04,14,26,23.90
2016,06,04,14,27,23.90
2016,06,04,14,28,24.00
2016,06,04,14,29,24.10
2016,06,04,14,30,24.10
2016,06,04,14,31,24.10
2016,06,04,14,32,24.20
2016,06,04,14,33,24.20
2016,06,04,14,34,24.20
2016,06,04,14,35,24.20
2016,06,04,14,36,24.20
2016,06,04,14,37,24.20
2016,06,04,14,38,24.20
2016,06,04,14,39,24.20
2016,06,04,14,40,24.30
2016,06,04,14,41,24.30
2016,06,04,14,42,24.40
2016,06,04,14,43,24.50
2016,06,04,14,44,24.60
2016,06,04,14,45,24.70
2016,06,04,14,46,24.80
2016,06,04,14,47,24.80
2016,06,04,14,48,24.80
2016,06,04,14,49,24.80
2016,06,04,14,50,24.90
2016,06,04,14,51,25.00
2016,06,04,14,52,25.00
2016,06,04,14,53,24.90
2016,06,04,14,54,24.80
2016,06,04,14,55,24.80
2016,06,04,14,56,24.80
2016,06,04,14,57,24.80
2016,06,04,14,58,24.80
2016,06,04,14,59,24.80
2016,06,04,15,00,24.80
2016,06,04,15,01,24.80
2016,06,04,15,02,24.80
2016,06,04,15,03,24.80
2016,06,04,15,04,24.80
2016,06,04,15,05,24.80
2016,06,04,15,06,24.80
2016,06,04,15,07,24.90
2016,06,04,15,08,24.90
2016,06,04,15,09,24.90
2016,06,04,15,10,24.90
2016,06,04,15,11,24.80
2016,06,04,15,12,24.80
2016,06,04,15,13,24.80
2016,06,04,15,14,24.70
2016,06,04,15,15,24.70
2016,06,04,15,16,24.70
2016,06,04,15,17,24.70
2016,06,04,15,18,24.70
2016,06,04,15,19,24.70
2016,06,04,15,20,24.60
2016,06,04,15,21,24.60
2016,06,04,15,22,24.60
2016,06,04,15,23,24.60
2016,06,04,15,24,24.60
2016,06,04,15,25,24.60
2016,06,04,15,26,24.70
2016,06,04,15,27,24.80
2016,06,04,15,28,24.90
2016,06,04,15,29,24.90
2016,06,04,15,30,25.00
2016,06,04,15,31,25.00
2016,06,04,15,32,25.10
2016,06,04,15,33,25.10
2016,06,04,15,34,25.20
2016,06,04,15,35,25.30
2016,06,04,15,36,25.30
2016,06,04,15,37,25.40
2016,06,04,15,38,25.50
2016,06,04,15,39,25.50
2016,06,04,15,40,25.50
2016,06,04,15,41,25.60
2016,06,04,15,42,25.60
2016,06,04,15,43,25.60
2016,06,04,15,44,25.60
2016,06,04,15,45,25.60
2016,06,04,15,46,25.60
2016,06,04,15,47,25.70
2016,06,04,15,48,25.70
2016,06,04,15,49,25.70
2016,06,04,15,50,25.70
2016,06,04,15,51,25.70
2016,06,04,15,52,25.70
2016,06,04,15,53,25.80
2016,06,04,15,54,25.80
2016,06,04,15,55,26.00
2016,06,04,15,56,26.10
2016,06,04,15,57,26.10
2016,06,04,15,58,26.20
2016,06,04,15,59,26.20
2016,06,04,16,00,26.20
2016,06,04,16,01,26.20
2016,06,04,16,02,26.30
2016,06,04,16,03,26.30
2016,06,04,16,04,26.30
2016,06,04,16,05,26.30
2016,06,04,16,06,26.30
2016,06,04,16,07,26.30
2016,06,04,16,08,26.30
2016,06,04,16,09,26.20
2016,06,04,16,10,26.20
2016,06,04,16,11,26.20
2016,06,04,16,12,26.20
2016,06,04,16,13,26.20
2016,06,04,16,14,26.20
2016,06,04,16,15,26.30
2016,06,04,16,16,26.40
2016,06,04,16,17,26.40
2016,06,04,16,18,26.50
2016,06,04,16,19,26.50
2016,06,04,16,20,26.50
2016,06,04,16,21,26.50
2016,06,04,16,22,26.40
2016,06,04,16,23,26.30
2016,06,04,16,24,26.10
2016,06,04,16,25,26.00
2016,06,04,16,26,25.90
2016,06,04,16,27,25.80
2016,06,04,16,28,25.80
2016,06,04,16,29,25.80
2016,06,04,16,30,25.80
2016,06,04,16,31,25.80
2016,06,04,16,32,25.80
2016,06,04,16,33,25.90
2016,06,04,16,34,25.90
2016,06,04,16,35,25.90
2016,06,04,16,36,25.90
2016,06,04,16,37,25.90
2016,06,04,16,38,25.90
2016,06,04,16,39,25.90
2016,06,04,16,40,26.00
2016,06,04,16,41,26.00
2016,06,04,16,42,26.10
2016,06,04,16,43,26.10
2016,06,04,16,44,26.20
2016,06,04,16,45,26.30
2016,06,04,16,46,26.40
2016,06,04,16,47,26.40
2016,06,04,16,48,26.40
2016,06,04,16,49,26.40
2016,06,04,16,50,26.40
2016,06,04,16,51,26.40
2016,06,04,16,52,26.40
2016,06,04,16,53,26.40
2016,06,04,16,54,26.40
2016,06,04,16,55,26.40
2016,06,04,16,56,26.40
2016,06,04,16,57,26.50
2016,06,04,16,58,26.50
2016,06,04,16,59,26.60
2016,06,04,17,00,26.70
2016,06,04,17,01,26.70
2016,06,04,17,02,26.70
2016,06,04,17,03,26.60
2016,06,04,17,04,26.60
2016,06,04,17,05,26.60
2016,06,04,17,06,26.50
2016,06,04,17,07,26.40
2016,06,04,17,08,26.40
2016,06,04,17,09,26.30
2016,06,04,17,10,26.30
2016,06,04,17,11,26.30
2016,06,04,17,12,26.40
2016,06,04,17,13,26.40
2016,06,04,17,14,26.50
2016,06,04,17,15,26.40
2016,06,04,17,16,26.40
2016,06,04,17,17,26.40
2016,06,04,17,18,26.40
2016,06,04,17,19,26.40